Regional Weather Roundup
Issued by NWS

Home | Current Version | Previous Version | Text Only | Print | Product List | Glossary Off
Versions: 1 2 3 4 5 6 7 8 9 10 11 12 13 14 15 16 17 18 19 20 21 22 23 24 25 26 27 28 29 30 31 32 33 34 35 36 37 38 39 40 41 42 43 44 45 46 47 48 49

000
ASUS45 KSLC 291710
RWRUT

UTAH REGIONAL WEATHER ROUNDUP
NATIONAL WEATHER SERVICE SALT LAKE CITY UT
1100 AM MDT MON JUN 29 2015

UTZ001>011-023>025-291800-

NORTHERN UTAH

CITY           SKY/WX    TMP DP  RH WIND       PRES   REMARKS
BRIGHAM CITY   SUNNY     90  40  17 N3        30.10R
HILL AFB       NOT AVBL
LOGAN          SUNNY     87  51  28 N7        30.12F
OGDEN          SUNNY     93  46  19 NE8       30.10S
PROVO AIRPORT  MOSUNNY   86  54  32 CALM      30.13S
SALT LAKE CITY MOSUNNY   92  47  21 S8        30.07S
VERNAL         SUNNY     87  42  20 CALM      30.20F
WENDOVER       SUNNY     90  43  19 SE9       30.08S
HEBER CITY     SUNNY     81  43  26 CALM      30.23F
WEST JORDAN    SUNNY     90  48  24 E9        30.12S

$$

UTZ012>022-026-027-291800-

SOUTHERN/CENTRAL UTAH

CITY           SKY/WX    TMP DP  RH WIND       PRES   REMARKS
BLANDING       SUNNY     81  44  26 SE6       30.33F
BRYCE CANYON   SUNNY     82  43  25 NW9       30.39S
CEDAR CITY     SUNNY     87  40  19 CALM      30.21F
DELTA          SUNNY     92  39  15 S10G16    30.13S
HANKSVILLE     SUNNY     91  41  17 SE7       30.13S
MILFORD        SUNNY     91  45  20 S18       30.14F
MOAB/CYNLANDS  SUNNY     90  44  20 VRB3      30.11S
PRICE          SUNNY     88  40  18 SW8       30.24S
ST GEORGE      SUNNY     93  48  21 CALM      30.03F HX  90
KANAB          SUNNY     88  50  27 S3        30.22F

$$

REGIONAL REPORTS     COLORADO/ARIZONA

CITY           SKY/WX    TMP DP  RH WIND       PRES   REMARKS
CRAIG, CO      SUNNY     82  50  32 N7        30.29F
GRAND JUNCTION SUNNY     88  44  21 SE9       30.16F
RIFLE          SUNNY     83  45  26 NW5       30.22F
MONTROSE       SUNNY     86  44  23 CALM      30.25F
CORTEZ         SUNNY     84  43  23 CALM      30.26F
PAGE, AZ       SUNNY     90  47  22 CALM      30.12S
GRAND CANYON   SUNNY     84  45  25 NW7       30.32F
KINGMAN        SUNNY     95  49  20 W9        30.07F HX  92
FLAGSTAFF      SUNNY     79  45  29 CALM      30.35F

$$

REGIONAL REPORTS    NEVADA/IDAHO/WYOMING

CITY           SKY/WX    TMP DP  RH WIND       PRES   REMARKS
LAS VEGAS, NV  MOSUNNY   99  46  16 S3        29.92S HX  95
ELY            SUNNY     87  37  17 NE7       30.26F
ELKO           SUNNY     87  46  24 SW10      30.17S
POCATELLO, ID  SUNNY     89  56  32 N8        30.12S
BURLEY         SUNNY     83  59  44 SE3       30.08S
EVANSTON, WY   SUNNY     79  44  28 NE13G18   30.37S
ROCK SPRINGS   SUNNY     80  45  28 E8        30.35F
KEMMERER       SUNNY     79  41  25 E12       30.40S

$$



USA.gov is the U.S. government's official web portal to all federal, state and local government web resources and services.